Time,TemperatureF,DewpointF,PressureIn,WindDirection,WindDirectionDegrees,WindSpeedMPH,WindSpeedGustMPH,Humidity,HourlyPrecipIn,Conditions,Clouds,dailyrainin,SoftwareType,DateUTC
2015-09-05 00:05:00,69.0,66.0,-100.00,SW,220,1.0,5.0,92,-99.99,,,-99.99,,2015-09-05 04:05:00,
2015-09-05 00:23:00,68.0,67.0,-100.00,SW,220,3.0,4.0,96,-99.99,,,-99.99,,2015-09-05 04:23:00,
2015-09-05 00:36:00,68.0,67.0,-100.00,SW,230,2.0,4.0,96,-99.99,,,-99.99,,2015-09-05 04:36:00,
2015-09-05 00:44:00,68.0,66.0,-100.00,SW,235,1.0,4.0,96,-99.99,,,-99.99,,2015-09-05 04:44:00,
2015-09-05 00:53:00,67.0,66.0,-100.00,NE,55,1.0,4.0,96,-99.99,,,-99.99,,2015-09-05 04:53:00,
2015-09-05 01:04:00,68.0,67.0,-100.00,ENE,65,0.0,5.0,96,-99.99,,,-99.99,,2015-09-05 05:04:00,
2015-09-05 01:13:00,68.0,67.0,-100.00,SW,215,1.0,3.0,96,-99.99,,,-99.99,,2015-09-05 05:13:00,
2015-09-05 01:23:00,68.0,67.0,-100.00,SSE,165,0.0,2.0,96,-99.99,,,-99.99,,2015-09-05 05:23:00,
2015-09-05 01:33:00,67.0,66.0,-100.00,SSE,165,1.0,3.0,96,-99.99,,,-99.99,,2015-09-05 05:33:00,
2015-09-05 01:44:00,67.0,66.0,-100.00,West,260,0.0,4.0,96,-99.99,,,-99.99,,2015-09-05 05:44:00,
2015-09-05 01:53:00,67.0,66.0,-100.00,North,0,1.0,4.0,97,-99.99,,,-99.99,,2015-09-05 05:53:00,
2015-09-05 02:04:00,67.0,66.0,-100.00,North,0,0.0,2.0,96,-99.99,,,-99.99,,2015-09-05 06:04:00,
2015-09-05 02:13:00,67.0,66.0,-100.00,SW,230,1.0,3.0,96,-99.99,,,-99.99,,2015-09-05 06:13:00,
2015-09-05 02:23:00,67.0,66.0,-100.00,SSW,200,0.0,2.0,97,-99.99,,,-99.99,,2015-09-05 06:23:00,
2015-09-05 02:34:00,67.0,66.0,-100.00,SSW,210,1.0,2.0,97,-99.99,,,-99.99,,2015-09-05 06:34:00,
2015-09-05 02:44:00,67.0,66.0,-100.00,SSW,205,0.0,1.0,97,-99.99,,,-99.99,,2015-09-05 06:44:00,
2015-09-05 02:53:00,67.0,66.0,-100.00,SSW,205,0.0,1.0,97,-99.99,,,-99.99,,2015-09-05 06:53:00,
2015-09-05 03:03:00,67.0,66.0,-100.00,NE,40,0.0,1.0,97,-99.99,,,-99.99,,2015-09-05 07:03:00,
2015-09-05 03:13:00,67.0,66.0,-100.00,NE,40,0.0,1.0,97,-99.99,,,-99.99,,2015-09-05 07:13:00,
2015-09-05 03:23:00,67.0,66.0,-100.00,SSE,160,0.0,1.0,97,-99.99,,,-99.99,,2015-09-05 07:23:00,
2015-09-05 03:33:00,67.0,66.0,-100.00,SSE,160,0.0,1.0,97,-99.99,,,-99.99,,2015-09-05 07:33:00,
2015-09-05 03:43:00,67.0,66.0,-100.00,SSW,210,0.0,1.0,97,-99.99,,,-99.99,,2015-09-05 07:43:00,
2015-09-05 03:54:00,66.0,66.0,-100.00,SW,220,1.0,2.0,97,-99.99,,,-99.99,,2015-09-05 07:54:00,
2015-09-05 04:03:00,66.0,65.0,-100.00,SSE,165,0.0,2.0,97,-99.99,,,-99.99,,2015-09-05 08:03:00,
2015-09-05 04:13:00,66.0,65.0,-100.00,South,180,1.0,2.0,97,-99.99,,,-99.99,,2015-09-05 08:13:00,
2015-09-05 04:23:00,66.0,65.0,-100.00,SSW,200,0.0,2.0,97,-99.99,,,-99.99,,2015-09-05 08:23:00,
2015-09-05 04:33:00,66.0,65.0,-100.00,SW,220,2.0,4.0,97,-99.99,,,-99.99,,2015-09-05 08:33:00,
2015-09-05 04:44:00,66.0,65.0,-100.00,SSW,195,0.0,2.0,97,-99.99,,,-99.99,,2015-09-05 08:44:00,
2015-09-05 04:53:00,66.0,65.0,-100.00,ENE,65,0.0,1.0,97,-99.99,,,-99.99,,2015-09-05 08:53:00,
2015-09-05 05:03:00,66.0,65.0,-100.00,West,260,0.0,2.0,97,-99.99,,,-99.99,,2015-09-05 09:03:00,
2015-09-05 05:13:00,66.0,65.0,-100.00,SW,215,0.0,2.0,97,-99.99,,,-99.99,,2015-09-05 09:13:00,
2015-09-05 05:23:00,66.0,65.0,-100.00,SW,225,0.0,2.0,97,-99.99,,,-99.99,,2015-09-05 09:23:00,
2015-09-05 05:33:00,66.0,65.0,-100.00,SE,145,0.0,1.0,97,-99.99,,,-99.99,,2015-09-05 09:33:00,
2015-09-05 05:44:00,66.0,65.0,-100.00,SSW,205,1.0,3.0,97,-99.99,,,-99.99,,2015-09-05 09:44:00,
2015-09-05 05:53:00,66.0,65.0,-100.00,SSW,200,1.0,4.0,97,-99.99,,,-99.99,,2015-09-05 09:53:00,
2015-09-05 06:03:00,65.0,65.0,-100.00,SW,220,1.0,4.0,97,-99.99,,,-99.99,,2015-09-05 10:03:00,
2015-09-05 06:13:00,65.0,65.0,-100.00,ESE,110,0.0,3.0,97,-99.99,,,-99.99,,2015-09-05 10:13:00,
2015-09-05 06:23:00,65.0,65.0,-100.00,SW,215,1.0,4.0,97,-99.99,,,-99.99,,2015-09-05 10:23:00,
2015-09-05 06:33:00,65.0,64.0,-100.00,SSW,195,0.0,3.0,97,-99.99,,,-99.99,,2015-09-05 10:33:00,
2015-09-05 06:43:00,65.0,64.0,-100.00,WSW,245,0.0,2.0,97,-99.99,,,-99.99,,2015-09-05 10:43:00,
2015-09-05 06:54:00,65.0,64.0,-100.00,SSW,205,0.0,3.0,97,-99.99,,,-99.99,,2015-09-05 10:54:00,
2015-09-05 07:03:00,65.0,64.0,-100.00,SSW,200,0.0,3.0,97,-99.99,,,-99.99,,2015-09-05 11:03:00,
2015-09-05 07:13:00,65.0,64.0,-100.00,SW,230,1.0,3.0,97,-99.99,,,-99.99,,2015-09-05 11:13:00,
2015-09-05 07:23:00,65.0,64.0,-100.00,SSW,205,1.0,4.0,97,-99.99,,,-99.99,,2015-09-05 11:23:00,
2015-09-05 07:34:00,65.0,64.0,-100.00,SW,215,1.0,6.0,96,-99.99,,,-99.99,,2015-09-05 11:34:00,
2015-09-05 07:44:00,65.0,64.0,-100.00,SW,215,1.0,4.0,96,-99.99,,,-99.99,,2015-09-05 11:44:00,
2015-09-05 07:54:00,65.0,64.0,-100.00,SSW,195,2.0,6.0,96,-99.99,,,-99.99,,2015-09-05 11:54:00,
2015-09-05 08:03:00,65.0,64.0,-100.00,SW,225,0.0,3.0,96,-99.99,,,-99.99,,2015-09-05 12:03:00,
2015-09-05 08:13:00,66.0,65.0,-100.00,West,280,0.0,3.0,96,-99.99,,,-99.99,,2015-09-05 12:13:00,
2015-09-05 08:23:00,65.0,64.0,-100.00,NNE,30,0.0,3.0,96,-99.99,,,-99.99,,2015-09-05 12:23:00,
2015-09-05 08:34:00,66.0,65.0,-100.00,SSW,210,0.0,2.0,96,-99.99,,,-99.99,,2015-09-05 12:34:00,
2015-09-05 08:44:00,66.0,65.0,-100.00,South,190,0.0,4.0,96,-99.99,,,-99.99,,2015-09-05 12:44:00,
2015-09-05 08:54:00,67.0,65.0,-100.00,West,280,1.0,6.0,95,-99.99,,,-99.99,,2015-09-05 12:54:00,
2015-09-05 09:03:00,67.0,65.0,-100.00,South,180,1.0,4.0,94,-99.99,,,-99.99,,2015-09-05 13:03:00,
2015-09-05 09:13:00,67.0,66.0,-100.00,SSW,205,1.0,5.0,94,-99.99,,,-99.99,,2015-09-05 13:13:00,
2015-09-05 09:23:00,68.0,66.0,-100.00,SSW,195,1.0,4.0,94,-99.99,,,-99.99,,2015-09-05 13:23:00,
2015-09-05 09:34:00,69.0,66.0,-100.00,SSW,195,1.0,3.0,92,-99.99,,,-99.99,,2015-09-05 13:34:00,
2015-09-05 09:44:00,69.0,66.0,-100.00,South,190,1.0,3.0,89,-99.99,,,-99.99,,2015-09-05 13:44:00,
2015-09-05 09:53:00,70.0,66.0,-100.00,South,185,1.0,3.0,88,-99.99,,,-99.99,,2015-09-05 13:53:00,
2015-09-05 10:03:00,71.0,67.0,-100.00,SSW,195,1.0,6.0,88,-99.99,,,-99.99,,2015-09-05 14:03:00,
2015-09-05 10:13:00,72.0,67.0,-100.00,South,185,1.0,6.0,85,-99.99,,,-99.99,,2015-09-05 14:13:00,
2015-09-05 10:23:00,73.0,67.0,-100.00,SSW,200,1.0,3.0,83,-99.99,,,-99.99,,2015-09-05 14:23:00,
2015-09-05 10:33:00,74.0,67.0,-100.00,South,185,1.0,4.0,80,-99.99,,,-99.99,,2015-09-05 14:33:00,
2015-09-05 10:43:00,74.0,68.0,-100.00,SSW,195,0.0,6.0,79,-99.99,,,-99.99,,2015-09-05 14:43:00,
2015-09-05 10:53:00,76.0,68.0,-100.00,North,350,1.0,6.0,78,-99.99,,,-99.99,,2015-09-05 14:53:00,
2015-09-05 11:03:00,77.0,69.0,-100.00,SE,140,1.0,5.0,76,-99.99,,,-99.99,,2015-09-05 15:03:00,
2015-09-05 11:13:00,78.0,69.0,-100.00,NNW,335,1.0,3.0,73,-99.99,,,-99.99,,2015-09-05 15:13:00,
2015-09-05 11:23:00,79.0,69.0,-100.00,East,80,1.0,4.0,70,-99.99,,,-99.99,,2015-09-05 15:23:00,
2015-09-05 11:33:00,80.0,70.0,-100.00,South,180,2.0,5.0,70,-99.99,,,-99.99,,2015-09-05 15:33:00,
2015-09-05 11:44:00,80.0,69.0,-100.00,NNW,340,1.0,4.0,69,-99.99,,,-99.99,,2015-09-05 15:44:00,